TimeEST,TemperatureF,Dew PointF,Humidity,Sea Level PressureIn,VisibilityMPH,Wind Direction,Wind SpeedMPH,Gust SpeedMPH,PrecipitationIn,Events,Conditions,WindDirDegrees,DateUTC
12:42 AM,62.6,62.6,100,30.19,2.5,Calm,Calm,-,N/A,,Mostly Cloudy,0,2012-11-13 05:42:00
12:44 AM,62.6,62.6,100,30.19,2.5,Calm,Calm,-,N/A,,Mostly Cloudy,0,2012-11-13 05:44:00
12:45 AM,62.6,62.6,100,30.19,2.0,Calm,Calm,-,N/A,,Mostly Cloudy,0,2012-11-13 05:45:00
12:46 AM,62.6,62.6,100,30.19,2.0,Calm,Calm,-,N/A,,Mostly Cloudy,0,2012-11-13 05:46:00
12:55 AM,62.6,62.6,100,30.19,1.8,Calm,Calm,-,N/A,,Scattered Clouds,0,2012-11-13 05:55:00
1:05 AM,62.6,62.6,100,30.19,1.5,Calm,Calm,-,N/A,,Partly Cloudy,0,2012-11-13 06:05:00
1:10 AM,60.8,60.8,100,30.18,1.2,Calm,Calm,-,N/A,,Partly Cloudy,0,2012-11-13 06:10:00
1:23 AM,60.8,60.8,100,30.18,1.5,Calm,Calm,-,N/A,,Scattered Clouds,0,2012-11-13 06:23:00
1:25 AM,60.8,60.8,100,30.18,1.5,Calm,Calm,-,N/A,,Mostly Cloudy,0,2012-11-13 06:25:00
1:30 AM,60.8,60.8,100,30.18,1.8,Calm,Calm,-,N/A,,Scattered Clouds,0,2012-11-13 06:30:00
1:53 AM,60.8,60.8,100,30.18,1.5,Calm,Calm,-,N/A,Rain,Light Rain,0,2012-11-13 06:53:00
1:55 AM,60.1,60.1,100,30.18,1.5,Calm,Calm,-,0.00,Rain,Light Rain,0,2012-11-13 06:55:00
2:00 AM,60.8,60.8,100,30.17,1.8,Calm,Calm,-,N/A,Rain,Light Rain,0,2012-11-13 07:00:00
2:03 AM,60.8,60.8,100,30.17,1.5,Calm,Calm,-,N/A,,Mostly Cloudy,0,2012-11-13 07:03:00
2:06 AM,60.8,60.8,100,30.17,1.2,Calm,Calm,-,N/A,,Mostly Cloudy,0,2012-11-13 07:06:00
2:09 AM,60.8,60.8,100,30.17,1.0,Calm,Calm,-,N/A,,Mostly Cloudy,0,2012-11-13 07:09:00
2:22 AM,59.0,59.0,100,30.17,1.2,Calm,Calm,-,N/A,,Overcast,0,2012-11-13 07:22:00
2:27 AM,59.0,59.0,100,30.17,1.5,Calm,Calm,-,N/A,,Overcast,0,2012-11-13 07:27:00
2:46 AM,60.8,60.8,100,30.17,1.2,Calm,Calm,-,N/A,,Overcast,0,2012-11-13 07:46:00
2:50 AM,60.8,60.8,100,30.16,1.5,Calm,Calm,-,N/A,,Overcast,0,2012-11-13 07:50:00
2:55 AM,59.7,59.7,100,30.16,1.8,Calm,Calm,-,0.00,,Overcast,0,2012-11-13 07:55:00
3:25 AM,60.8,60.8,100,30.17,2.0,Calm,Calm,-,N/A,,Overcast,0,2012-11-13 08:25:00
3:27 AM,60.8,60.8,100,30.17,2.0,Calm,Calm,-,N/A,,Overcast,0,2012-11-13 08:27:00
3:29 AM,60.8,60.8,100,30.17,2.5,WNW,3.5,-,N/A,,Overcast,290,2012-11-13 08:29:00
3:31 AM,62.6,62.6,100,30.17,3.0,NW,3.5,-,N/A,,Overcast,310,2012-11-13 08:31:00
3:37 AM,62.6,62.6,100,30.17,4.0,NW,3.5,-,N/A,,Overcast,320,2012-11-13 08:37:00
3:38 AM,62.6,62.6,100,30.16,4.0,NW,4.6,-,N/A,,Overcast,320,2012-11-13 08:38:00
3:39 AM,62.6,62.6,100,30.17,5.0,NW,4.6,-,N/A,,Overcast,310,2012-11-13 08:39:00
3:55 AM,62.2,62.2,100,30.17,10.0,Calm,Calm,-,N/A,,Overcast,0,2012-11-13 08:55:00
4:01 AM,62.6,62.6,100,30.17,10.0,Calm,Calm,-,N/A,,Overcast,0,2012-11-13 09:01:00
4:02 AM,62.6,62.6,100,30.17,10.0,Calm,Calm,-,N/A,,Overcast,0,2012-11-13 09:02:00
4:55 AM,62.2,62.2,100,30.16,10.0,Calm,Calm,-,N/A,,Overcast,0,2012-11-13 09:55:00
5:55 AM,62.1,62.1,100,30.18,10.0,NNW,6.9,-,N/A,,Overcast,330,2012-11-13 10:55:00
6:23 AM,62.6,62.6,100,30.19,10.0,NW,6.9,-,N/A,,Overcast,320,2012-11-13 11:23:00
6:30 AM,62.6,62.6,100,30.19,10.0,NNW,6.9,-,N/A,,Overcast,330,2012-11-13 11:30:00
6:40 AM,62.6,62.6,100,30.19,10.0,North,8.1,-,N/A,,Overcast,350,2012-11-13 11:40:00
6:53 AM,62.6,62.6,100,30.19,10.0,North,6.9,-,N/A,,Overcast,350,2012-11-13 11:53:00
6:55 AM,62.1,62.1,100,30.19,10.0,North,6.9,-,N/A,,Overcast,350,2012-11-13 11:55:00
7:47 AM,62.6,62.6,100,30.21,10.0,NNW,8.1,-,N/A,,Overcast,330,2012-11-13 12:47:00
7:55 AM,62.2,62.2,100,30.21,10.0,NNW,9.2,-,N/A,,Overcast,330,2012-11-13 12:55:00
8:06 AM,62.6,62.6,100,30.22,10.0,NW,10.4,-,N/A,,Overcast,320,2012-11-13 13:06:00
8:38 AM,59.0,59.0,100,30.22,10.0,NW,10.4,-,N/A,,Overcast,320,2012-11-13 13:38:00
8:55 AM,58.8,58.8,100,30.24,10.0,NW,10.4,-,N/A,,Overcast,320,2012-11-13 13:55:00
9:24 AM,59.0,59.0,100,30.24,10.0,NNW,11.5,-,N/A,,Overcast,340,2012-11-13 14:24:00
9:28 AM,59.0,59.0,100,30.25,10.0,NNW,10.4,-,N/A,,Overcast,330,2012-11-13 14:28:00
9:36 AM,59.0,59.0,100,30.25,10.0,NNW,11.5,-,N/A,,Overcast,340,2012-11-13 14:36:00
9:42 AM,59.0,59.0,100,30.25,10.0,NNW,8.1,-,N/A,,Overcast,340,2012-11-13 14:42:00
9:52 AM,59.0,59.0,100,30.25,10.0,NNW,11.5,-,N/A,,Overcast,340,2012-11-13 14:52:00
9:55 AM,59.4,59.4,100,30.25,10.0,NNW,10.4,-,N/A,,Overcast,340,2012-11-13 14:55:00
9:56 AM,59.0,59.0,100,30.25,10.0,NNW,10.4,-,N/A,,Overcast,340,2012-11-13 14:56:00
10:03 AM,59.0,59.0,100,30.25,10.0,NNW,8.1,-,N/A,,Overcast,330,2012-11-13 15:03:00
10:20 AM,60.8,60.8,100,30.25,10.0,NNW,9.2,-,N/A,,Overcast,340,2012-11-13 15:20:00
10:35 AM,62.6,57.2,82,30.25,10.0,NNW,6.9,-,N/A,,Overcast,330,2012-11-13 15:35:00
10:43 AM,62.6,57.2,82,30.25,10.0,NNW,6.9,-,N/A,,Overcast,340,2012-11-13 15:43:00
10:55 AM,63.7,57.4,80,30.25,10.0,NNW,6.9,-,N/A,,Overcast,340,2012-11-13 15:55:00
11:55 AM,66.4,57.4,73,30.23,10.0,NNW,8.1,-,N/A,,Overcast,330,2012-11-13 16:55:00
12:01 PM,66.2,57.2,73,30.22,10.0,North,9.2,-,N/A,,Overcast,350,2012-11-13 17:01:00
12:46 PM,68.0,57.2,68,30.19,10.0,North,4.6,-,N/A,,Mostly Cloudy,360,2012-11-13 17:46:00
12:55 PM,68.2,57.6,69,30.19,10.0,Variable,5.8,-,N/A,,Mostly Cloudy,0,2012-11-13 17:55:00
1:55 PM,70.2,58.3,66,30.16,10.0,NNE,6.9,-,N/A,,Partly Cloudy,30,2012-11-13 18:55:00
2:55 PM,71.2,57.6,62,30.16,10.0,WNW,3.5,-,N/A,,Scattered Clouds,300,2012-11-13 19:55:00
3:55 PM,71.1,57.2,61,30.16,10.0,NNW,8.1,-,N/A,,Overcast,340,2012-11-13 20:55:00
4:55 PM,68.9,57.0,66,30.16,10.0,North,8.1,-,N/A,,Overcast,350,2012-11-13 21:55:00
5:55 PM,66.7,55.0,66,30.17,10.0,North,10.4,-,N/A,,Overcast,350,2012-11-13 22:55:00
6:55 PM,64.8,54.0,68,30.18,10.0,North,5.8,-,N/A,,Overcast,350,2012-11-13 23:55:00
7:55 PM,62.4,53.6,73,30.19,10.0,North,5.8,-,N/A,,Overcast,10,2012-11-14 00:55:00
8:55 PM,59.7,51.6,75,30.20,10.0,North,5.8,-,N/A,,Partly Cloudy,360,2012-11-14 01:55:00
9:55 PM,59.9,52.9,78,30.21,10.0,North,4.6,-,N/A,,Overcast,360,2012-11-14 02:55:00
10:55 PM,57.9,51.3,78,30.22,10.0,NNW,5.8,-,N/A,,Mostly Cloudy,340,2012-11-14 03:55:00
11:21 PM,57.2,51.8,82,30.21,10.0,NNW,5.8,-,N/A,,Mostly Cloudy,340,2012-11-14 04:21:00
11:31 PM,59.0,51.8,77,30.21,10.0,North,4.6,-,N/A,,Overcast,10,2012-11-14 04:31:00
11:55 PM,59.2,53.8,82,30.21,10.0,NNE,5.8,-,N/A,,Overcast,20,2012-11-14 04:55:00
11:57 PM,59.0,53.6,82,30.21,10.0,NNE,5.8,-,N/A,,Overcast,30,2012-11-14 04:57:00
11:59 PM,59.0,55.4,88,30.21,10.0,NNE,5.8,-,N/A,,Overcast,30,2012-11-14 04:59:00